ARIANE 5 R/B

基本信息
目录编号:
44802
目录名称:
ARIANE 5 R/B
国际标识:
2019-080C
轨道中心:
EARTH
物体状态:
在轨
发射日期:
2019-11-26 UTC
国别:
法国 (FR)
轨道信息
数据来源: 国际轨道数据
星历时间: 2026-07-13T16:04:53+0800
半长轴: 21830.607km
偏心率: 0.6969546
轨道倾角: 5.164°
近地点辐角: 242.686°
升交点赤经: 167.826°
平近点角: 31.891°
近地点: 237.528km
远地点: 30667.412km
周期: 535.006分钟
每日圈数: 2.69156
详细信息
发射场:
FRGUI
轨道高度:
LEO
数据来源:
AOE Integration Group
参考系:
TEME
时间系统:
UTC
历元类型:
SGP4
2D轨道图
3D轨道图
轨道高度分析图
轨道倾角分析图
轨道综合分析图
查看轨道综合分析图